STARLINK-34861

Last updated on Sun Dec 07 2025 00:02:05 GMT+0000 (Coordinated Universal Time)

1 66368U 25254W 25340.20564527 .00297576 00000+0 19568-2 0 9998 2 66368 53.1581 307.3171 0001386 122.5028 237.6126 15.74288342 4650
UTC large
Height (km)
Speed (km/s)
/
Latitude / Longitude
Inclination (degrees)
Orbital Period (minutes)
Azimuth
Elevation
Range (km)
Doppler Factor

Next 0 passes for location: London (51.5072 / 0.1276)

Sorry there are no passes over London.